User: anonymous
Location: Albany
(35.0000°S, 118.0000°E)
Time: 07:58:02
(UTC-04:00)
Language:

Cosmos 2227 Rocket - Orbit

View from above orbital plane
View from above orbital plane
View from above satellite
View from above satellite

Ground track
Ground track

The orbit data is extracted from the following two-line orbital elements,

1 22285U 92093B   14293.47412184  .00000268  00000-0  16291-3 0  4333
2 22285 071.0221 088.5177 0004025 198.9248 161.1726 14.14926952125221
Epoch (UTC): 20 October 2014 11:22:44
Eccentricity: 0.0004025
inclination: 71.0221°
perigee height: 839 km
apogee height: 845 km
right ascension of ascending node: 88.5177°
argument of perigee: 198.9248°
revolutions per day: 14.14926952
mean anomaly at epoch: 161.1726°
orbit number at epoch: 12522

The dashed part of the orbit path shows where the satellite is in the earth's shadow,  

DLR